Powrót do katalogu

STARLINK-32224

AktywnyŁącznośćVLEO
NORAD 60941·PAYLOAD·🇺🇸 United States

Wystrzelony Aug 31, 2024 z Vandenberg Space Force Base

Loading…

Następne Przeloty (najbliższe 24 godziny)

TLE

ŚwieżeSource: CelesTrak SupGP

Epoka: Sep 14, 2026, 22:25 UTC

1 60941C 24155T   26257.93451389  .00010046  00000+0  29690-3 0  2577
2 60941  53.1600 327.7770 0001174  84.6108 345.2166 15.34376313    14

Śledź STARLINK-32224 w czasie rzeczywistym z AllMySat

Download on the App Store